Location: Czekanka
(50.4925°N, 19.2643°E)
Time: 01:28:24
(UTC+00:00)

CZ-2C R/B - Pass Details

Date: 19 September 2024
Orbit: 703 x 903 km, 98.2° (Epoch: 09 October)

Event Time Altitude Azimuth Distance (km) Brightness Sun altitude
Rises 02:27:36 0° 5° (N) 3,523 6.9 -18.8°
Reaches altitude 10° 02:30:38 10° 350° (N) 2,590 5.9 -18.3°
Maximum altitude 02:34:39 20° 306° (NW) 1,983 4.9 -17.8°
Enters shadow 02:36:01 18° 288° (WNW) 2,062 4.8 -17.6°
